Regional Weather Roundup
Issued by NWS Upton, NY

Current Version | Previous Version | Graphics & Text | Print | Product List | Glossary Off
Versions: 1 2 3 4 5 6 7 8 9 10 11 12 13 14 15 16 17 18 19 20 21 22 23 24 25 26 27 28 29 30 31 32 33 34 35 36 37 38 39 40 41 42 43 44 45 46 47 48 49

000
ASUS41 KOKX 032004
RWROKX

REGIONAL WEATHER ROUNDUP
NATIONAL WEATHER SERVICE NEW YORK NY
400 PM EDT THU SEP 03 2015

NOTE: "FAIR" INDICATES FEW OR NO CLOUDS BELOW 12,000 FEET WITH NO
SIGNIFICANT WEATHER AND/OR OBSTRUCTIONS TO VISIBILITY.

NYZ071-072-176-178-NJZ106-104-032100-
NEW YORK CITY METRO AREA


CITY           SKY/WX    TMP DP  RH WIND       PRES   REMARKS
CENTRAL PARK   SUNNY     93  56  28 NE7       29.86F HX  91
LAGUARDIA APRT PTSUNNY   91  61  36 NE6       29.82F HX  91
KENNEDY INTL   MOSUNNY   88  65  46 S9        29.84F HX  90
NEWARK/LIBERTY PTSUNNY   93  59  31 NE8       29.82F HX  92
BRNX BOT. GARD   N/A     91  50  24 W6        29.84S
TETERBORO      SUNNY     93  57  29 NE9       29.81F HX  91
$$

NYZ177-179-078>081-032100-
LONG ISLAND NEW YORK

CITY           SKY/WX    TMP DP  RH WIND       PRES   REMARKS
FARMINGDALE    MOSUNNY   87  69  54 S10       29.84S HX  91
ISLIP          MOSUNNY   85  69  58 S9        29.82S
SHIRLEY        SUNNY     86  70  58 S8        29.84S HX  90
WESTHAMPTON    SUNNY     83  70  64 S7        29.85F
MONTAUK POINT    N/A     82  72  71 VRB5      29.85S
$$

NYZ052-065-067-032100-
HUDSON VALLEY

CITY           SKY/WX    TMP DP  RH WIND       PRES   REMARKS
WHITE PLAINS   SUNNY     92  56  29 NE5       29.84F HX  90
NEWBURGH       MOSUNNY   88  70  55 VRB7      29.87S HX  92
MONTGOMERY     MOSUNNY   92  69  47 NE8       29.84F HX  97
POUGHKEEPSIE   SUNNY     92  64  39 N7        29.83F HX  93
ALBANY         TSTM      78  67  68 N26G36    29.88R
$$

NJZ001-105-106-008-010-013-015-019>022-104-032100-
NEW JERSEY

CITY           SKY/WX    TMP DP  RH WIND       PRES   REMARKS
NEWARK/LIBERTY PTSUNNY   93  59  31 NE8       29.82F HX  92
TETERBORO      SUNNY     93  57  29 NE9       29.81F HX  91
CALDWELL       MOSUNNY   92  62  36 NW7       29.83F HX  92
MORRISTOWN     MOSUNNY   91  63  38 NE8       29.84F HX  92
SOMERVILLE     SUNNY     93  62  35 NW10      29.81F HX  93
SUSSEX         NOT AVBL
ANDOVER          N/A     88  67  49 CALM      29.87F HX  91
TRENTON        SUNNY     93  57  29 VRB7      29.83F HX  91
MILLVILLE      SUNNY     94  62  34 N9        29.83F HX  94
ATLANTIC CITY  SUNNY     86  69  56 SE10      29.84F HX  90
WRIGHTSTOWN    SUNNY     90  66  44 VRB3      29.80F HX  93
TOMS RIVER     SUNNY     90  64  43 SE5       29.84F HX  91
BELMAR         SUNNY     88  64  45 E5        29.84F
$$

PAZ047>061-062-071-032100-
EASTERN PENNSYLVANIA

CITY           SKY/WX    TMP DP  RH WIND       PRES   REMARKS
PHILADELPHIA   MOSUNNY   96  60  30 N9G18     29.83F HX  96
ALLENTOWN      MOSUNNY   91  66  43 NE5       29.85F HX  93
SCRANTON       LGT RAIN  80  69  69 VRB3      29.90S
$$

CTZ002-004>006-009-010-012-RIZ004-006-007-MAZ004-011-015-032100-
SOUTHERN NEW ENGLAND
 IN CT

CITY           SKY/WX    TMP DP  RH WIND       PRES   REMARKS
BRADLEY INTL   PTSUNNY   90  64  42 VRB5      29.83S HX  91
HARTFORD       SUNNY     89  66  46 NE8       29.82S HX  91
DANBURY        SUNNY     89  56  32 VRB3      29.86S
WTRBRY/OXFORD  MOSUNNY   88  66  48 N5        29.89S HAZE    HX  90
BRIDGEPORT     SUNNY     85  70  60 SW6       29.83S
MERIDEN        MOSUNNY   91  65  41 CALM      29.82F HX  93
NEW HAVEN      MOSUNNY   83  69  62 SW7       29.84S
CHESTER        NOT AVBL
GROTON         SUNNY     81  73  76 VRB7      29.82F
WILLIMANTIC    PTSUNNY   91  64  40 NE6       29.82F HX  92

 IN RI

CITY           SKY/WX    TMP DP  RH WIND       PRES   REMARKS
PROVIDENCE     PTSUNNY   87  67  51 SE9       29.83S HX  90
BLOCK ISLAND   SUNNY     79  73  83 S9        29.84F
WESTERLY       MOSUNNY   83  70  64 SW8       29.84S

 IN MA

CITY           SKY/WX    TMP DP  RH WIND       PRES   REMARKS
BOSTON         MOSUNNY   79  65  62 SE8       29.84F
WORCESTER      SUNNY     85  61  44 E3        29.88F
WESTFIELD      MOSUNNY   88  64  44 N3        29.84S
PROVINCETOWN     N/A     75  66  73 N7        29.84F
NANTUCKET      SUNNY     79  72  79 W12       29.84F
$$

ANZ330-335-338-340-345-350-353-355-032100-
COASTAL MARINE OBSERVATIONS


STATION/POSITION TIME  SKY/WX   TEMP    WIND        PRES    VSBY  WAVE
                                AIR SEA DIR/SP/G                  HT/PER
                 (UTC)          (F)     (DEG/KT/KT) (MB)    (MI)  (FT/S)
NY HARB ENTRANCE 1850            80 80  200/  6/  6 1010.4          1/12
4S FIRE IS       NOT AVBL
20S FIRE ISLAND  1850            76 79  160/  2/  4 1010.5          1/11
GREAT SOUTH BAY  1900            78 80  200/  6/  8   N/A
23SW MTP         1950            76 77  210/  6/  6 1010.1          2/ 6
HUDSON CANYON    NOT AVBL
KINGS POINT      1900            89 75   10/  1/  3 1009.7
EXECUTION ROCKS  1900            84     140/  4/  6   N/A
CENTRAL LI SOUND NOT AVBL
EASTERN LI SOUND 1900            75 71  190/  6/  8   N/A
ROBBINS REEF     1900            86      40/  8/  9 1009.3
$$


>>>>>>>>>>>>>>>>>>>>>>>>>>>> KEY <<<<<<<<<<<<<<<<<<<<<<<<<<<
>                                                          <
>     SKY/WX - SKY CONDITION/PRESENT WEATHER               <
>     TMP    - TEMPERATURE IN FAHRENHEIT                   <
>     DP     - DEWPOINT IN FAHRENHEIT                      <
>     RH     - RELATIVE HUMIDITY IN PERCENT                <
>     WIND   - DIRECTION AND SPEED IN MPH                  <
>     PRES   - MEAN SEA LEVEL PRESSURE IN INCHES OF HG     <
>     WCI    - WIND CHILL INDEX                            <
>     VSB    - VISIBILITY IN MILES                         <
>     HX     - HEAT INDEX                                  <
>     TC     - TEMPERATURE IN CELSIUS                      <
>     VRB    - VARIABLE WIND DIRECTION                     <
>                                                          <
>>>>>>>>>>>>>>>>>>>>>>>>>>>> KEY <<<<<<<<<<<<<<<<<<<<<<<<<<<




USA.gov is the U.S. government's official web portal to all federal, state and local government web resources and services.